Location: Arbon
(43.0005°N, 0.7472°E)
Time: 17:06:14
(UTC+00:00)

Cosmos 1606 Rocket - Pass Details

Date: 07 August 2020
Orbit: 602 x 633 km, 82.5° (Epoch: 23 September)

Event Time Altitude Azimuth Distance (km) Brightness Sun altitude
Rises 04:15:21 0° 194° (SSW) 2,907 6.6 -7.2°
Reaches altitude 10° 04:17:35 10° 197° (SSW) 2,007 5.8 -6.9°
Maximum altitude 04:22:00 66° 280° (W) 695 3.6 -6.2°
Drops below altitude 10° 04:26:29 10° 3° (N) 2,026 6.7 -5.5°
Sets 04:28:45 0° 6° (N) 2,938 7.5 -5.1°
